{"data":{"norad_id":81406,"intl_designator":"","name":"UNKNOWN","alt_names":[],"object_type":"UNKNOWN","status":"UNKNOWN","operator":null,"country":null,"launch_date":null,"launch_site_code":null,"launch_vehicle":null,"mission":null,"orbit_class":"UNKNOWN","rcs_meters":null,"size_class":null,"mass_kg":null,"dimensions":null,"purposes":[],"wikipedia_slug":null,"has_3d_model":false,"image_url":null,"decayed_at":null,"tle_current":{"epoch":"2026-09-04T10:59:18.532896Z","epoch_age_seconds":1400564,"freshness":"OLD","line1":"1 81406U          26247.45785339  .00001485  00000+0  61047-3 0  9992","line2":"2 81406  65.8104 276.2578 0863170 202.7441 153.3090 13.12936059568556","mean_motion":13.12936059,"eccentricity":0.086317,"inclination_deg":65.8104,"raan_deg":276.2578,"arg_perigee_deg":202.7441,"mean_anomaly_deg":153.309,"bstar":0.00061047,"rev_number":56855,"period_min":109.67784684783,"perigee_km":556.67994555968,"apogee_km":1866.9650100511,"semimajor_km":7589.9594778054,"source":"CELESTRAK","updated_at":"2026-09-20T09:00:32.388208Z"}}}